Location: Bonnesvalyn
(49.1218°N, 3.3177°E)
Time: 08:26:33
(UTC+00:00)

Cosmos 1943 Rocket - Pass Details

Date: 09 February 2023
Orbit: 811 x 844 km, 71.0° (Epoch: 24 March)

Event Time Altitude Azimuth Distance (km) Brightness Sun altitude
Rises 20:23:24 0° 327° (NNW) 3,413 6.0 -34.0°
Reaches altitude 10° 20:25:56 10° 322° (NW) 2,473 5.2 -34.4°
Enters shadow 20:30:07 41° 286° (WNW) 1,204 3.3 -35.0°
